Time,TemperatureF,DewpointF,PressureIn,WindDirection,WindDirectionDegrees,WindSpeedMPH,WindSpeedGustMPH,Humidity,HourlyPrecipIn,Conditions,Clouds,dailyrainin,SoftwareType,DateUTC
2013-02-22 00:12:00,40.0,-12.0,29.75,South,171,2.0,6.0,10,0.02,,,0.93,,2013-02-22 06:12:00,
2013-02-22 00:21:00,40.0,-12.0,29.75,South,171,2.0,6.0,10,0.02,,,0.93,,2013-02-22 06:21:00,
2013-02-22 00:51:00,40.0,-12.0,29.75,SSE,165,2.0,6.0,10,0.93,,,0.93,,2013-02-22 06:51:00,
2013-02-22 01:01:00,40.0,-12.0,29.75,SSE,167,1.0,6.0,10,0.00,,,0.00,,2013-02-22 07:01:00,
2013-02-22 01:11:00,40.0,-12.0,29.75,South,169,2.0,6.0,10,0.00,,,0.00,,2013-02-22 07:11:00,
2013-02-22 01:21:00,40.0,-12.0,29.75,South,169,2.0,6.0,10,0.00,,,0.00,,2013-02-22 07:21:00,
2013-02-22 01:42:00,41.0,-11.0,29.76,SW,216,6.0,6.0,10,0.00,,,0.00,,2013-02-22 07:42:00,
2013-02-22 01:51:00,41.0,-11.0,29.76,SW,216,6.0,6.0,10,0.00,,,0.00,,2013-02-22 07:51:00,
2013-02-22 02:01:00,42.0,-11.0,29.76,SW,223,3.0,7.0,10,0.00,,,0.00,,2013-02-22 08:01:00,
2013-02-22 02:11:00,43.0,-10.0,29.76,West,265,2.0,7.0,10,0.00,,,0.00,,2013-02-22 08:11:00,
2013-02-22 02:21:00,43.0,-10.0,29.76,West,265,2.0,7.0,10,0.00,,,0.00,,2013-02-22 08:21:00,
2013-02-22 02:52:00,44.0,-9.0,29.77,SW,217,4.0,12.0,10,0.01,,,0.01,,2013-02-22 08:52:00,
2013-02-22 03:03:00,43.0,-10.0,29.77,WSW,251,5.0,16.0,10,0.01,,,0.01,,2013-02-22 09:03:00,
2013-02-22 03:11:00,43.0,-10.0,29.78,WSW,243,7.0,16.0,10,0.01,,,0.01,,2013-02-22 09:11:00,
2013-02-22 03:21:00,43.0,-10.0,29.78,WSW,243,7.0,16.0,10,0.01,,,0.01,,2013-02-22 09:21:00,
2013-02-22 03:32:00,43.0,-10.0,29.78,WSW,247,13.0,13.0,10,0.00,,,0.01,,2013-02-22 09:32:00,
2013-02-22 03:42:00,42.0,-11.0,29.78,WSW,254,3.0,11.0,10,0.00,,,0.01,,2013-02-22 09:42:00,
2013-02-22 03:51:00,42.0,-11.0,29.78,WSW,254,3.0,11.0,10,0.00,,,0.01,,2013-02-22 09:51:00,
2013-02-22 04:01:00,42.0,42.0,29.79,West,263,7.0,14.0,99,0.00,,,0.01,,2013-02-22 10:01:00,
2013-02-22 04:11:00,42.0,42.0,29.79,West,280,4.0,14.0,99,0.00,,,0.01,,2013-02-22 10:11:00,
2013-02-22 04:21:00,42.0,42.0,29.79,West,280,4.0,14.0,99,0.00,,,0.01,,2013-02-22 10:21:00,
2013-02-22 04:32:00,42.0,41.0,29.80,WSW,241,6.0,12.0,98,0.00,,,0.01,,2013-02-22 10:32:00,
2013-02-22 04:42:00,41.0,40.0,29.81,WSW,254,4.0,12.0,96,0.00,,,0.01,,2013-02-22 10:42:00,
2013-02-22 04:51:00,41.0,40.0,29.81,WSW,254,4.0,12.0,96,0.00,,,0.01,,2013-02-22 10:51:00,
2013-02-22 05:01:00,41.0,40.0,29.81,WSW,254,4.0,12.0,96,0.00,,,0.01,,2013-02-22 11:01:00,
2013-02-22 05:11:00,41.0,40.0,29.83,West,265,3.0,11.0,98,0.00,,,0.01,,2013-02-22 11:11:00,
2013-02-22 05:21:00,41.0,40.0,29.83,West,265,3.0,11.0,98,0.00,,,0.01,,2013-02-22 11:21:00,
2013-02-22 05:32:00,41.0,40.0,29.83,West,265,3.0,11.0,98,0.00,,,0.01,,2013-02-22 11:32:00,
2013-02-22 05:42:00,40.0,39.0,29.85,WSW,246,5.0,11.0,95,0.00,,,0.01,,2013-02-22 11:42:00,
2013-02-22 05:52:00,40.0,39.0,29.85,WSW,246,5.0,11.0,95,0.00,,,0.01,,2013-02-22 11:52:00,
2013-02-22 06:02:00,40.0,39.0,29.86,WSW,248,5.0,17.0,95,0.00,,,0.01,,2013-02-22 12:02:00,
2013-02-22 06:11:00,40.0,39.0,29.86,WSW,248,5.0,17.0,95,0.00,,,0.01,,2013-02-22 12:11:00,
2013-02-22 06:21:00,40.0,38.0,29.86,WNW,285,3.0,17.0,94,0.00,,,0.01,,2013-02-22 12:21:00,
2013-02-22 06:32:00,40.0,38.0,29.86,WNW,285,3.0,17.0,94,0.00,,,0.01,,2013-02-22 12:32:00,
2013-02-22 06:42:00,40.0,38.0,29.86,WNW,285,3.0,17.0,94,0.00,,,0.01,,2013-02-22 12:42:00,
2013-02-22 06:52:00,40.0,38.0,29.87,SSW,212,2.0,18.0,94,0.00,,,0.01,,2013-02-22 12:52:00,
2013-02-22 07:02:00,40.0,39.0,29.88,West,275,1.0,11.0,96,0.00,,,0.01,,2013-02-22 13:02:00,
2013-02-22 07:11:00,39.0,38.0,29.88,West,265,0.0,11.0,95,0.00,,,0.01,,2013-02-22 13:11:00,
2013-02-22 07:22:00,39.0,38.0,29.88,West,265,0.0,11.0,95,0.00,,,0.01,,2013-02-22 13:22:00,
2013-02-22 07:32:00,39.0,38.0,29.88,West,265,0.0,11.0,95,0.00,,,0.01,,2013-02-22 13:32:00,
2013-02-22 07:42:00,39.0,37.0,29.90,WNW,284,2.0,11.0,93,0.00,,,0.01,,2013-02-22 13:42:00,
2013-02-22 07:51:00,39.0,37.0,29.90,WNW,284,2.0,11.0,93,0.00,,,0.01,,2013-02-22 13:51:00,
2013-02-22 08:01:00,39.0,37.0,29.90,WSW,250,0.0,14.0,93,0.00,,,0.01,,2013-02-22 14:01:00,
2013-02-22 08:11:00,39.0,37.0,29.91,WSW,244,6.0,14.0,93,0.00,,,0.01,,2013-02-22 14:11:00,
2013-02-22 08:21:00,39.0,37.0,29.91,WSW,244,6.0,14.0,93,0.00,,,0.01,,2013-02-22 14:21:00,
2013-02-22 08:32:00,39.0,37.0,29.91,WSW,240,5.0,10.0,93,0.00,,,0.01,,2013-02-22 14:32:00,
2013-02-22 08:42:00,39.0,37.0,29.92,SW,226,7.0,10.0,93,0.00,,,0.01,,2013-02-22 14:42:00,
2013-02-22 08:52:00,39.0,37.0,29.92,SW,226,7.0,10.0,93,0.00,,,0.01,,2013-02-22 14:52:00,
2013-02-22 09:01:00,40.0,38.0,29.93,WSW,253,7.0,13.0,91,0.00,,,0.01,,2013-02-22 15:01:00,
2013-02-22 09:11:00,40.0,37.0,29.93,WSW,254,7.0,13.0,89,0.00,,,0.01,,2013-02-22 15:11:00,
2013-02-22 09:21:00,40.0,37.0,29.93,WSW,254,7.0,13.0,89,0.00,,,0.01,,2013-02-22 15:21:00,
2013-02-22 09:32:00,41.0,38.0,29.93,WSW,250,3.0,12.0,89,0.00,,,0.01,,2013-02-22 15:32:00,
2013-02-22 09:42:00,41.0,38.0,29.93,WSW,250,3.0,12.0,89,0.00,,,0.01,,2013-02-22 15:42:00,
2013-02-22 09:52:00,41.0,37.0,29.94,West,264,8.0,12.0,86,0.00,,,0.01,,2013-02-22 15:52:00,
2013-02-22 10:01:00,42.0,38.0,29.94,West,275,6.0,14.0,87,0.00,,,0.01,,2013-02-22 16:01:00,
2013-02-22 10:12:00,42.0,38.0,29.94,WNW,282,5.0,14.0,87,0.00,,,0.01,,2013-02-22 16:12:00,
2013-02-22 10:21:00,42.0,38.0,29.94,WNW,282,5.0,14.0,87,0.00,,,0.01,,2013-02-22 16:21:00,
2013-02-22 10:32:00,42.0,38.0,29.94,WNW,282,5.0,14.0,87,0.00,,,0.01,,2013-02-22 16:32:00,
2013-02-22 10:42:00,42.0,38.0,29.94,WNW,282,5.0,14.0,87,0.00,,,0.01,,2013-02-22 16:42:00,
2013-02-22 10:52:00,42.0,38.0,29.95,WSW,247,7.0,12.0,85,0.00,,,0.01,,2013-02-22 16:52:00,
2013-02-22 11:01:00,43.0,38.0,29.95,West,264,3.0,14.0,82,0.00,,,0.01,,2013-02-22 17:01:00,
2013-02-22 11:11:00,43.0,38.0,29.96,WSW,237,7.0,14.0,82,0.00,,,0.01,,2013-02-22 17:11:00,
2013-02-22 11:21:00,43.0,38.0,29.96,WSW,237,7.0,14.0,82,0.00,,,0.01,,2013-02-22 17:21:00,
2013-02-22 11:32:00,44.0,38.0,29.96,WSW,241,6.0,14.0,79,0.00,,,0.01,,2013-02-22 17:32:00,
2013-02-22 11:42:00,45.0,39.0,29.95,NW,311,7.0,14.0,78,0.00,,,0.01,,2013-02-22 17:42:00,
2013-02-22 11:52:00,45.0,39.0,29.95,NW,311,7.0,14.0,78,0.00,,,0.01,,2013-02-22 17:52:00,
2013-02-22 12:01:00,45.0,38.0,29.95,NW,308,10.0,14.0,76,0.00,,,0.01,,2013-02-22 18:01:00,
2013-02-22 12:12:00,45.0,38.0,29.95,WNW,288,2.0,14.0,77,0.00,,,0.01,,2013-02-22 18:12:00,
2013-02-22 12:22:00,45.0,38.0,29.95,WNW,288,2.0,14.0,77,0.00,,,0.01,,2013-02-22 18:22:00,
2013-02-22 12:32:00,45.0,39.0,29.94,WNW,288,5.0,16.0,80,0.00,,,0.01,,2013-02-22 18:32:00,
2013-02-22 12:42:00,45.0,39.0,29.94,WNW,288,5.0,16.0,80,0.00,,,0.01,,2013-02-22 18:42:00,
2013-02-22 12:51:00,45.0,39.0,29.93,West,267,5.0,16.0,80,0.00,,,0.01,,2013-02-22 18:51:00,
2013-02-22 13:01:00,45.0,39.0,29.93,West,267,5.0,16.0,80,0.00,,,0.01,,2013-02-22 19:01:00,
2013-02-22 13:11:00,46.0,39.0,29.92,WSW,244,10.0,18.0,77,0.00,,,0.01,,2013-02-22 19:11:00,
2013-02-22 13:21:00,46.0,39.0,29.92,WSW,244,10.0,18.0,77,0.00,,,0.01,,2013-02-22 19:21:00,
2013-02-22 13:31:00,45.0,39.0,29.93,West,260,5.0,17.0,78,0.00,,,0.01,,2013-02-22 19:31:00,
2013-02-22 13:41:00,45.0,39.0,29.92,West,275,6.0,17.0,78,0.00,,,0.01,,2013-02-22 19:41:00,
2013-02-22 13:52:00,45.0,39.0,29.92,West,275,6.0,17.0,78,0.00,,,0.01,,2013-02-22 19:52:00,
2013-02-22 14:01:00,45.0,39.0,29.92,WSW,258,6.0,17.0,80,0.00,,,0.01,,2013-02-22 20:01:00,
2013-02-22 14:11:00,45.0,39.0,29.92,WSW,258,6.0,17.0,80,0.00,,,0.01,,2013-02-22 20:11:00,
2013-02-22 14:21:00,44.0,39.0,29.92,WSW,254,8.0,17.0,82,0.00,,,0.01,,2013-02-22 20:21:00,
2013-02-22 14:31:00,44.0,39.0,29.92,WSW,254,8.0,17.0,82,0.00,,,0.01,,2013-02-22 20:31:00,
2013-02-22 14:41:00,44.0,39.0,29.92,WSW,254,8.0,17.0,82,0.00,,,0.01,,2013-02-22 20:41:00,
2013-02-22 14:52:00,44.0,38.0,29.92,West,267,5.0,18.0,80,0.00,,,0.01,,2013-02-22 20:52:00,
2013-02-22 15:01:00,44.0,38.0,29.92,West,267,5.0,18.0,80,0.00,,,0.01,,2013-02-22 21:01:00,
2013-02-22 15:11:00,45.0,39.0,29.91,WNW,288,5.0,15.0,78,0.00,,,0.01,,2013-02-22 21:11:00,
2013-02-22 15:21:00,45.0,39.0,29.91,WNW,288,5.0,15.0,78,0.00,,,0.01,,2013-02-22 21:21:00,
2013-02-22 15:32:00,45.0,38.0,29.91,NW,305,3.0,13.0,75,0.00,,,0.01,,2013-02-22 21:32:00,
2013-02-22 15:42:00,44.0,38.0,29.91,West,277,7.0,13.0,78,0.00,,,0.01,,2013-02-22 21:42:00,
2013-02-22 15:51:00,44.0,38.0,29.91,West,277,7.0,13.0,78,0.00,,,0.01,,2013-02-22 21:51:00,
2013-02-22 16:01:00,44.0,37.0,29.91,WNW,285,5.0,12.0,77,0.00,,,0.01,,2013-02-22 22:01:00,
2013-02-22 16:11:00,44.0,37.0,29.91,WNW,285,5.0,12.0,77,0.00,,,0.01,,2013-02-22 22:11:00,
2013-02-22 16:21:00,43.0,36.0,29.91,West,272,4.0,12.0,77,0.00,,,0.01,,2013-02-22 22:21:00,
2013-02-22 16:31:00,42.0,36.0,29.91,WSW,254,3.0,13.0,79,0.00,,,0.01,,2013-02-22 22:31:00,
2013-02-22 16:41:00,42.0,36.0,29.91,WSW,254,3.0,13.0,79,0.00,,,0.01,,2013-02-22 22:41:00,
2013-02-22 16:51:00,42.0,36.0,29.91,WSW,254,3.0,13.0,79,0.00,,,0.01,,2013-02-22 22:51:00,
2013-02-22 17:01:00,41.0,35.0,29.92,WNW,301,2.0,10.0,80,0.00,,,0.01,,2013-02-22 23:01:00,
2013-02-22 17:11:00,41.0,35.0,29.92,NW,325,4.0,10.0,80,0.00,,,0.01,,2013-02-22 23:11:00,
2013-02-22 17:21:00,41.0,35.0,29.92,NW,325,4.0,10.0,80,0.00,,,0.01,,2013-02-22 23:21:00,
2013-02-22 17:31:00,41.0,36.0,29.92,West,264,1.0,12.0,82,0.00,,,0.01,,2013-02-22 23:31:00,
2013-02-22 17:41:00,41.0,36.0,29.92,West,264,1.0,12.0,82,0.00,,,0.01,,2013-02-22 23:41:00,
2013-02-22 17:52:00,40.0,35.0,29.93,SW,234,3.0,12.0,81,0.00,,,0.01,,2013-02-22 23:52:00,
2013-02-22 18:01:00,40.0,35.0,29.93,West,281,6.0,12.0,81,0.00,,,0.01,,2013-02-23 00:01:00,
2013-02-22 18:11:00,40.0,35.0,29.94,West,267,3.0,12.0,81,0.00,,,0.01,,2013-02-23 00:11:00,
2013-02-22 18:21:00,40.0,35.0,29.94,West,267,3.0,12.0,81,0.00,,,0.01,,2013-02-23 00:21:00,
2013-02-22 18:32:00,39.0,34.0,29.95,West,264,2.0,12.0,81,0.00,,,0.01,,2013-02-23 00:32:00,
2013-02-22 18:42:00,39.0,34.0,29.95,West,264,2.0,12.0,81,0.00,,,0.01,,2013-02-23 00:42:00,
2013-02-22 18:51:00,39.0,34.0,29.95,West,264,2.0,12.0,81,0.00,,,0.01,,2013-02-23 00:51:00,
2013-02-22 19:01:00,38.0,33.0,29.96,West,260,1.0,7.0,83,0.00,,,0.01,,2013-02-23 01:01:00,
2013-02-22 19:11:00,38.0,34.0,29.96,West,260,1.0,7.0,84,0.00,,,0.01,,2013-02-23 01:11:00,
2013-02-22 19:21:00,38.0,34.0,29.96,West,260,1.0,7.0,84,0.00,,,0.01,,2013-02-23 01:21:00,
2013-02-22 19:31:00,38.0,34.0,29.95,WSW,258,1.0,4.0,85,0.00,,,0.01,,2013-02-23 01:31:00,
2013-02-22 19:42:00,38.0,34.0,29.95,WSW,258,1.0,4.0,85,0.00,,,0.01,,2013-02-23 01:42:00,
2013-02-22 19:51:00,38.0,34.0,29.96,West,260,2.0,4.0,85,0.00,,,0.01,,2013-02-23 01:51:00,
2013-02-22 20:01:00,38.0,34.0,29.96,WSW,258,4.0,6.0,86,0.00,,,0.01,,2013-02-23 02:01:00,
2013-02-22 20:11:00,38.0,34.0,29.97,WSW,256,2.0,6.0,86,0.00,,,0.01,,2013-02-23 02:11:00,
2013-02-22 20:21:00,38.0,34.0,29.97,WSW,256,2.0,6.0,86,0.00,,,0.01,,2013-02-23 02:21:00,
2013-02-22 20:31:00,38.0,34.0,29.97,WSW,256,1.0,5.0,86,0.00,,,0.01,,2013-02-23 02:31:00,
2013-02-22 20:42:00,38.0,34.0,29.97,WSW,256,1.0,5.0,86,0.00,,,0.01,,2013-02-23 02:42:00,
2013-02-22 20:52:00,38.0,34.0,29.97,WSW,256,1.0,5.0,87,0.00,,,0.01,,2013-02-23 02:52:00,
2013-02-22 21:01:00,38.0,34.0,29.98,WSW,257,0.0,3.0,86,0.00,,,0.01,,2013-02-23 03:01:00,
2013-02-22 21:11:00,37.0,34.0,29.97,WSW,257,0.0,3.0,87,0.00,,,0.01,,2013-02-23 03:11:00,
2013-02-22 21:21:00,37.0,34.0,29.97,WSW,257,0.0,3.0,87,0.00,,,0.01,,2013-02-23 03:21:00,
2013-02-22 21:32:00,37.0,34.0,29.97,WSW,257,1.0,6.0,88,0.00,,,0.01,,2013-02-23 03:32:00,
2013-02-22 21:41:00,37.0,34.0,29.97,WSW,257,1.0,6.0,88,0.00,,,0.01,,2013-02-23 03:41:00,
2013-02-22 21:51:00,37.0,34.0,29.97,West,260,1.0,6.0,89,0.00,,,0.01,,2013-02-23 03:51:00,
2013-02-22 22:01:00,37.0,34.0,29.97,West,263,1.0,6.0,88,0.00,,,0.01,,2013-02-23 04:01:00,
2013-02-22 22:11:00,37.0,34.0,29.97,West,263,0.0,6.0,90,0.00,,,0.01,,2013-02-23 04:11:00,
2013-02-22 22:21:00,37.0,34.0,29.97,West,263,0.0,6.0,90,0.00,,,0.01,,2013-02-23 04:21:00,
2013-02-22 22:31:00,37.0,34.0,29.96,WNW,301,4.0,5.0,89,0.00,,,0.01,,2013-02-23 04:31:00,
2013-02-22 22:41:00,37.0,34.0,29.96,WNW,301,4.0,5.0,89,0.00,,,0.01,,2013-02-23 04:41:00,
2013-02-22 22:51:00,37.0,35.0,29.97,WNW,302,2.0,5.0,91,0.00,,,0.01,,2013-02-23 04:51:00,
2013-02-22 23:02:00,37.0,35.0,29.98,NW,305,1.0,10.0,91,0.00,,,0.01,,2013-02-23 05:02:00,
2013-02-22 23:12:00,37.0,35.0,29.98,NW,305,1.0,10.0,91,0.00,,,0.01,,2013-02-23 05:12:00,
2013-02-22 23:22:00,36.0,33.0,29.97,NW,313,3.0,10.0,89,0.00,,,0.01,,2013-02-23 05:22:00,
2013-02-22 23:32:00,35.0,32.0,29.97,NNW,347,3.0,10.0,89,0.00,,,0.01,,2013-02-23 05:32:00,
2013-02-22 23:42:00,35.0,32.0,29.97,NNW,347,3.0,10.0,89,0.00,,,0.01,,2013-02-23 05:42:00,
2013-02-22 23:52:00,34.0,30.0,29.98,WNW,301,2.0,10.0,85,0.00,,,0.01,,2013-02-23 05:52:00,